Regional Weather Roundup
Issued by NWS

Current Version | Previous Version | Text Only | Print | Product List | Glossary On
Versions: 1 2 3 4 5 6 7 8 9 10 11 12 13 14 15 16 17 18 19 20 21 22 23 24 25 26 27 28 29 30 31 32 33 34 35 36 37 38 39 40 41 42 43 44 45 46 47 48 49 50
000
ASUS44 KJAN 281310
RWRMS

MISSISSIPPI HOURLY WEATHER ROUNDUP
NATIONAL WEATHER SERVICE JACKSON MS
800 AM CDT FRI AUG 28 2015

NOTE: "FAIR: INDICATES FEW OR NO CLOUDS BELOW 12,000 FEET WITH NO
SIGNIFICANT WEATHER AND/OR OBSTRUCTIONS TO VISIBILITY.

MSZ001>002-007>008-010>013-018>021-025>028-034>036-281400-
NORTHWEST MISSISSIPPI

CITY           SKY/WX    TMP DP  RH WIND       PRES   REMARKS
CLARKSDALE     FAIR      66  66 100 N5        30.07S
CLEVELAND      FAIR      65  63  94 CALM      30.05S
GREENWOOD      SUNNY     64  59  83 N3        30.06R
GREENVILLE     SUNNY     65  60  84 N3        30.05R
OLIVE BRANCH   MOSUNNY   63  63 100 E7        30.08S
OXFORD         FAIR      64  59  82 E5        30.09R
TUNICA         SUNNY     63  63 100 CALM      30.08R FOG
$$

MSZ003>006-009-014>017-022>024-029>033-037>039-281400-
NORTHEAST MISSISSIPPI

CITY           SKY/WX    TMP DP  RH WIND       PRES   REMARKS
COLUMBUS AFB   MOSUNNY   68  64  88 NE2       30.05R
CORINTH        PTSUNNY   64  61  88 CALM      30.09S
GOLDN TRIANGLE MOSUNNY   64  59  82 N5        30.06R
STARKVILLE     FAIR      66  63  88 CALM      30.07R
TUPELO         PTSUNNY   65  60  84 NE7       30.08R
$$

MSZ040-058-281400-
CENTRAL MISSISSIPPI

CITY           SKY/WX    TMP DP  RH WIND       PRES   REMARKS
JACKSON INTL   MOSUNNY   69  60  73 CALM      30.04R
JACKSON HAWKNS SUNNY     66  60  81 CALM      30.05R
MERIDIAN KEY   SUNNY     67  62  84 N3        30.05R
MERIDIAN NAS   SUNNY     67  62  84 NW3       30.05R
VICKSBURG      SUNNY     67  62  84 CALM      30.04R
$$

MSZ059>079-281400-
SOUTH MISSISSIPPI

CITY           SKY/WX    TMP DP  RH WIND       PRES   REMARKS
BROOKHAVEN       N/A     64  61  88 N3        30.06R
HATTIESBURG    SUNNY     68  61  78 CALM      30.02R
MCCOMB         SUNNY     69  59  70 NE5       30.03R
NATCHEZ        SUNNY     66  57  72 E3        30.04R
PINE BELT      SUNNY     70  59  68 N7        30.03S
$$

MSZ080>082-281400-
COASTAL MISSISSIPPI

CITY           SKY/WX    TMP DP  RH WIND       PRES   REMARKS
BAY ST LOUIS   SUNNY     70  59  68 N7        29.99R
BILOXI         SUNNY     72  64  76 NE8       29.99R
PASCAGOULA     SUNNY     70  65  84 NE6       30.00R
GULFPORT       SUNNY     73  63  70 N7        29.98R
$$



USA.gov is the U.S. government's official web portal to all federal, state and local government web resources and services.